Time,TemperatureF,DewpointF,PressureIn,WindDirection,WindDirectionDegrees,WindSpeedMPH,WindSpeedGustMPH,Humidity,HourlyPrecipIn,Conditions,Clouds,dailyrainin,SoftwareType,DateUTC
2013-03-10 00:06:00,62.6,61.0,30.00,ESE,111,11.0,-999.0,94,-99.99,,,0.00,weatherlink.com 1.10,2013-03-10 06:06:00,
2013-03-10 00:21:00,62.5,61.0,30.00,SSE,162,7.0,-999.0,94,-99.99,,,0.00,weatherlink.com 1.10,2013-03-10 06:21:00,
2013-03-10 00:36:00,62.3,61.0,29.99,ESE,115,4.0,-999.0,94,-99.99,,,0.00,weatherlink.com 1.10,2013-03-10 06:36:00,
2013-03-10 00:51:00,62.2,61.0,29.99,SE,144,2.0,-999.0,95,-99.99,,,0.00,weatherlink.com 1.10,2013-03-10 06:51:00,
2013-03-10 01:06:00,62.2,61.0,29.98,SSE,155,2.0,-999.0,95,-99.99,,,0.00,weatherlink.com 1.10,2013-03-10 07:06:00,
2013-03-10 01:21:00,62.0,61.0,29.98,ESE,103,4.0,-999.0,95,-99.99,,,0.00,weatherlink.com 1.10,2013-03-10 07:21:00,
2013-03-10 01:36:00,61.9,61.0,29.98,SE,136,8.0,-999.0,95,-99.99,,,0.00,weatherlink.com 1.10,2013-03-10 07:36:00,
2013-03-10 01:51:00,61.8,60.0,29.97,SSE,167,6.0,-999.0,95,-99.99,,,0.00,weatherlink.com 1.10,2013-03-10 07:51:00,
2013-03-10 03:06:00,61.9,61.0,29.97,SE,143,7.0,-999.0,96,-99.99,,,0.00,weatherlink.com 1.10,2013-03-10 08:06:00,
2013-03-10 03:21:00,62.2,61.0,29.96,SE,135,2.0,-999.0,95,-99.99,,,0.00,weatherlink.com 1.10,2013-03-10 08:21:00,
2013-03-10 03:37:00,62.4,61.0,29.96,SSE,150,4.0,-999.0,95,-99.99,,,0.00,weatherlink.com 1.10,2013-03-10 08:37:00,
2013-03-10 03:52:00,62.5,61.0,29.97,SE,128,9.0,-999.0,95,-99.99,,,0.00,weatherlink.com 1.10,2013-03-10 08:52:00,
2013-03-10 04:08:00,62.7,61.0,29.96,SE,128,7.0,-999.0,95,-99.99,,,0.00,weatherlink.com 1.10,2013-03-10 09:08:00,
2013-03-10 04:22:00,62.6,61.0,29.95,SE,127,9.0,-999.0,95,-99.99,,,0.00,weatherlink.com 1.10,2013-03-10 09:22:00,
2013-03-10 04:37:00,62.4,61.0,29.94,East,95,6.0,-999.0,95,-99.99,,,0.00,weatherlink.com 1.10,2013-03-10 09:37:00,
2013-03-10 04:52:00,62.3,61.0,29.96,SE,126,9.0,-999.0,95,-99.99,,,0.00,weatherlink.com 1.10,2013-03-10 09:52:00,
2013-03-10 05:07:00,62.2,61.0,29.96,ESE,110,4.0,-999.0,95,-99.99,,,0.00,weatherlink.com 1.10,2013-03-10 10:07:00,
2013-03-10 05:22:00,62.1,61.0,29.95,SE,140,5.0,-999.0,96,-99.99,,,0.00,weatherlink.com 1.10,2013-03-10 10:22:00,
2013-03-10 05:37:00,62.2,61.0,29.95,ESE,109,13.0,-999.0,96,-99.99,,,0.00,weatherlink.com 1.10,2013-03-10 10:37:00,
2013-03-10 05:52:00,62.3,61.0,29.95,ENE,69,4.0,-999.0,96,-99.99,,,0.00,weatherlink.com 1.10,2013-03-10 10:52:00,
2013-03-10 06:07:00,62.4,61.0,29.96,ENE,78,3.0,-999.0,96,-99.99,,,0.00,weatherlink.com 1.10,2013-03-10 11:07:00,
2013-03-10 06:22:00,62.5,61.0,29.95,SE,133,6.0,-999.0,96,-99.99,,,0.00,weatherlink.com 1.10,2013-03-10 11:22:00,
2013-03-10 06:37:00,62.6,62.0,29.95,SSE,152,8.0,-999.0,96,-99.99,,,0.00,weatherlink.com 1.10,2013-03-10 11:37:00,
2013-03-10 06:52:00,62.6,62.0,29.96,ESE,114,2.0,-999.0,96,-99.99,,,0.00,weatherlink.com 1.10,2013-03-10 11:52:00,
2013-03-10 07:07:00,62.6,62.0,29.96,SE,131,6.0,-999.0,96,-99.99,,,0.00,weatherlink.com 1.10,2013-03-10 12:07:00,
2013-03-10 07:22:00,62.6,62.0,29.96,SE,146,6.0,-999.0,96,-99.99,,,0.00,weatherlink.com 1.10,2013-03-10 12:22:00,
2013-03-10 07:37:00,62.8,62.0,29.97,SSE,165,2.0,-999.0,96,-99.99,,,0.00,weatherlink.com 1.10,2013-03-10 12:37:00,
2013-03-10 07:52:00,63.1,62.0,29.98,SSE,148,4.0,-999.0,96,-99.99,,,0.00,weatherlink.com 1.10,2013-03-10 12:52:00,
2013-03-10 08:07:00,63.5,62.0,29.98,SSE,147,12.0,-999.0,96,-99.99,,,0.00,weatherlink.com 1.10,2013-03-10 13:07:00,
2013-03-10 08:22:00,64.0,63.0,29.98,SE,133,8.0,-999.0,95,-99.99,,,0.00,weatherlink.com 1.10,2013-03-10 13:22:00,
2013-03-10 08:37:00,64.4,63.0,29.98,ESE,115,12.0,-999.0,94,-99.99,,,0.00,weatherlink.com 1.10,2013-03-10 13:37:00,
2013-03-10 08:53:00,65.0,63.0,29.99,ESE,113,12.0,-999.0,94,-99.99,,,0.00,weatherlink.com 1.10,2013-03-10 13:53:00,
2013-03-10 09:08:00,65.6,63.0,29.99,SSE,161,9.0,-999.0,92,-99.99,,,0.00,weatherlink.com 1.10,2013-03-10 14:08:00,
2013-03-10 09:22:00,66.1,64.0,30.00,ENE,78,6.0,-999.0,91,-99.99,,,0.00,weatherlink.com 1.10,2013-03-10 14:22:00,
2013-03-10 09:38:00,66.5,63.0,29.99,SSE,154,10.0,-999.0,89,-99.99,,,0.00,weatherlink.com 1.10,2013-03-10 14:38:00,
2013-03-10 09:53:00,66.8,64.0,30.00,SE,146,9.0,-999.0,89,-99.99,,,0.00,weatherlink.com 1.10,2013-03-10 14:53:00,
2013-03-10 10:08:00,67.2,64.0,29.99,ESE,122,14.0,-999.0,88,-99.99,,,0.00,weatherlink.com 1.10,2013-03-10 15:08:00,
2013-03-10 10:23:00,67.8,64.0,29.99,NE,43,12.0,-999.0,88,-99.99,,,0.00,weatherlink.com 1.10,2013-03-10 15:23:00,
2013-03-10 10:38:00,68.5,64.0,30.00,SE,134,13.0,-999.0,86,-99.99,,,0.00,weatherlink.com 1.10,2013-03-10 15:38:00,
2013-03-10 10:53:00,69.0,64.0,30.01,SSE,162,15.0,-999.0,84,-99.99,,,0.00,weatherlink.com 1.10,2013-03-10 15:53:00,
2013-03-10 11:08:00,69.6,64.0,30.01,SE,127,13.0,-999.0,83,-99.99,,,0.00,weatherlink.com 1.10,2013-03-10 16:08:00,
2013-03-10 11:23:00,70.1,64.0,30.02,SE,126,17.0,-999.0,82,-99.99,,,0.00,weatherlink.com 1.10,2013-03-10 16:23:00,
2013-03-10 11:39:00,70.6,65.0,30.03,SE,129,13.0,-999.0,82,-99.99,,,0.00,weatherlink.com 1.10,2013-03-10 16:39:00,
2013-03-10 11:53:00,70.7,65.0,30.02,SSE,155,8.0,-999.0,82,-99.99,,,0.00,weatherlink.com 1.10,2013-03-10 16:53:00,
2013-03-10 12:08:00,71.3,65.0,30.02,SE,140,11.0,-999.0,80,-99.99,,,0.00,weatherlink.com 1.10,2013-03-10 17:08:00,
2013-03-10 12:23:00,70.5,65.0,30.02,SSE,148,18.0,-999.0,82,-99.99,,,0.00,weatherlink.com 1.10,2013-03-10 17:23:00,
2013-03-10 12:38:00,70.7,65.0,30.02,South,178,14.0,-999.0,83,-99.99,,,0.00,weatherlink.com 1.10,2013-03-10 17:38:00,
2013-03-10 12:53:00,71.0,65.0,30.02,SE,131,9.0,-999.0,82,-99.99,,,0.00,weatherlink.com 1.10,2013-03-10 17:53:00,
2013-03-10 13:08:00,71.7,66.0,30.01,ESE,122,6.0,-999.0,82,-99.99,,,0.00,weatherlink.com 1.10,2013-03-10 18:08:00,
2013-03-10 13:23:00,72.8,67.0,30.00,SSE,149,15.0,-999.0,81,-99.99,,,0.00,weatherlink.com 1.10,2013-03-10 18:23:00,
2013-03-10 13:38:00,73.7,67.0,30.00,SSE,161,7.0,-999.0,80,-99.99,,,0.00,weatherlink.com 1.10,2013-03-10 18:38:00,
2013-03-10 13:53:00,73.9,67.0,30.00,SE,128,15.0,-999.0,79,-99.99,,,0.00,weatherlink.com 1.10,2013-03-10 18:53:00,
2013-03-10 14:08:00,73.6,67.0,29.99,South,173,10.0,-999.0,79,-99.99,,,0.00,weatherlink.com 1.10,2013-03-10 19:08:00,
2013-03-10 14:25:00,73.3,67.0,29.98,SE,124,6.0,-999.0,80,-99.99,,,0.00,weatherlink.com 1.10,2013-03-10 19:25:00,
2013-03-10 14:39:00,73.5,67.0,29.97,SSE,153,8.0,-999.0,79,-99.99,,,0.00,weatherlink.com 1.10,2013-03-10 19:39:00,
2013-03-10 14:54:00,73.3,67.0,29.97,SSE,154,6.0,-999.0,80,-99.99,,,0.00,weatherlink.com 1.10,2013-03-10 19:54:00,
2013-03-10 15:08:00,73.7,67.0,29.97,ESE,105,13.0,-999.0,80,-99.99,,,0.00,weatherlink.com 1.10,2013-03-10 20:08:00,
2013-03-10 15:24:00,73.6,67.0,29.96,SSE,151,10.0,-999.0,79,-99.99,,,0.00,weatherlink.com 1.10,2013-03-10 20:24:00,
2013-03-10 15:39:00,72.6,67.0,29.96,SE,130,8.0,-999.0,81,-99.99,,,0.00,weatherlink.com 1.10,2013-03-10 20:39:00,
2013-03-10 15:54:00,72.4,66.0,29.96,SE,133,5.0,-999.0,81,-99.99,,,0.00,weatherlink.com 1.10,2013-03-10 20:54:00,
2013-03-10 16:09:00,72.2,66.0,29.96,SE,146,10.0,-999.0,82,-99.99,,,0.00,weatherlink.com 1.10,2013-03-10 21:09:00,
2013-03-10 16:24:00,71.8,66.0,29.95,SSE,148,7.0,-999.0,82,-99.99,,,0.00,weatherlink.com 1.10,2013-03-10 21:24:00,
2013-03-10 16:39:00,70.8,65.0,29.94,SSE,159,13.0,-999.0,83,-99.99,,,0.00,weatherlink.com 1.10,2013-03-10 21:39:00,
2013-03-10 16:53:00,70.1,66.0,29.93,South,170,13.0,-999.0,86,-99.99,,,0.00,weatherlink.com 1.10,2013-03-10 21:53:00,
2013-03-10 17:09:00,69.8,65.0,29.93,SE,140,8.0,-999.0,85,-99.99,,,0.00,weatherlink.com 1.10,2013-03-10 22:09:00,
2013-03-10 17:23:00,69.0,65.0,29.93,SE,142,8.0,-999.0,87,-99.99,,,0.00,weatherlink.com 1.10,2013-03-10 22:23:00,
2013-03-10 17:38:00,68.6,65.0,29.93,SSE,165,18.0,-999.0,88,-99.99,,,0.00,weatherlink.com 1.10,2013-03-10 22:38:00,
2013-03-10 17:53:00,68.1,65.0,29.92,East,98,8.0,-999.0,89,-99.99,,,0.00,weatherlink.com 1.10,2013-03-10 22:53:00,
2013-03-10 18:08:00,67.6,65.0,29.91,SSE,153,10.0,-999.0,90,-99.99,,,0.00,weatherlink.com 1.10,2013-03-10 23:08:00,
2013-03-10 18:24:00,67.1,65.0,29.92,ESE,102,16.0,-999.0,91,-99.99,,,0.00,weatherlink.com 1.10,2013-03-10 23:24:00,
2013-03-10 18:39:00,66.8,64.0,29.92,ESE,102,4.0,-999.0,91,-99.99,,,0.00,weatherlink.com 1.10,2013-03-10 23:39:00,
2013-03-10 18:54:00,66.6,64.0,29.92,East,89,4.0,-999.0,92,-99.99,,,0.00,weatherlink.com 1.10,2013-03-10 23:54:00,
2013-03-10 19:09:00,66.6,65.0,29.92,ESE,119,8.0,-999.0,93,-99.99,,,0.00,weatherlink.com 1.10,2013-03-11 00:09:00,
2013-03-10 19:24:00,66.5,65.0,29.92,ESE,115,7.0,-999.0,93,-99.99,,,0.00,weatherlink.com 1.10,2013-03-11 00:24:00,
2013-03-10 19:39:00,66.4,64.0,29.92,SSE,157,10.0,-999.0,93,-99.99,,,0.00,weatherlink.com 1.10,2013-03-11 00:39:00,
2013-03-10 19:54:00,66.3,64.0,29.92,ESE,123,8.0,-999.0,93,-99.99,,,0.00,weatherlink.com 1.10,2013-03-11 00:54:00,
2013-03-10 20:09:00,66.2,64.0,29.92,SE,137,10.0,-999.0,93,-99.99,,,0.00,weatherlink.com 1.10,2013-03-11 01:09:00,
2013-03-10 20:24:00,66.3,64.0,29.93,SSE,159,9.0,-999.0,93,-99.99,,,0.00,weatherlink.com 1.10,2013-03-11 01:24:00,
2013-03-10 20:39:00,66.3,64.0,29.93,SE,124,8.0,-999.0,93,-99.99,,,0.00,weatherlink.com 1.10,2013-03-11 01:39:00,
2013-03-10 20:54:00,66.3,64.0,29.93,SSE,147,7.0,-999.0,93,-99.99,,,0.00,weatherlink.com 1.10,2013-03-11 01:54:00,
2013-03-10 21:09:00,66.3,64.0,29.93,SSE,151,9.0,-999.0,93,-99.99,,,0.00,weatherlink.com 1.10,2013-03-11 02:09:00,
2013-03-10 21:24:00,66.2,65.0,29.93,SE,124,15.0,-999.0,94,-99.99,,,0.00,weatherlink.com 1.10,2013-03-11 02:24:00,
2013-03-10 21:39:00,66.2,65.0,29.93,SSE,159,6.0,-999.0,94,-99.99,,,0.00,weatherlink.com 1.10,2013-03-11 02:39:00,
2013-03-10 21:54:00,66.2,65.0,29.93,SE,140,11.0,-999.0,94,-99.99,,,0.00,weatherlink.com 1.10,2013-03-11 02:54:00,
2013-03-10 22:09:00,66.2,65.0,29.93,SE,130,7.0,-999.0,94,-99.99,,,0.00,weatherlink.com 1.10,2013-03-11 03:09:00,
2013-03-10 22:25:00,66.1,64.0,29.92,SSE,162,6.0,-999.0,94,-99.99,,,0.00,weatherlink.com 1.10,2013-03-11 03:25:00,
2013-03-10 22:39:00,66.1,64.0,29.92,SSE,153,12.0,-999.0,94,-99.99,,,0.00,weatherlink.com 1.10,2013-03-11 03:39:00,
2013-03-10 22:54:00,66.1,64.0,29.91,SSW,192,5.0,-999.0,94,-99.99,,,0.00,weatherlink.com 1.10,2013-03-11 03:54:00,
2013-03-10 23:09:00,66.1,64.0,29.90,ESE,123,7.0,-999.0,94,-99.99,,,0.00,weatherlink.com 1.10,2013-03-11 04:09:00,
2013-03-10 23:25:00,66.0,64.0,29.89,SSE,157,12.0,-999.0,94,-99.99,,,0.00,weatherlink.com 1.10,2013-03-11 04:25:00,
2013-03-10 23:39:00,66.1,65.0,29.89,SE,140,15.0,-999.0,95,-99.99,,,0.00,weatherlink.com 1.10,2013-03-11 04:39:00,
2013-03-10 23:54:00,66.2,65.0,29.89,SE,137,8.0,-999.0,94,-99.99,,,0.00,weatherlink.com 1.10,2013-03-11 04:54:00,